BBB077 LIRN-EDDH

Flight info

Callsign BBB077
Flight time 2h 17m
Altitude 36000
Route MOLUX DCT TORPO DCT LAMSI DCT ARMUT DCT ABGUS DCT DIRBO/N0407F230 T902 RARUP RARUP3P
Aircraft A21N/M-SDE3FGHIRWY/LB1

Departure

Time 2026-04-24 16:37
Airport Naples International Airport (LIRN)

Arrival

Time 2026-04-24 18:54
Airport Hamburg Helmut Schmidt Airport (EDDH)
Time Latitude Longitude Altitude Speed Heading
2026-04-24 16:03 40.87870 14.28128 293 ft 0 kts 142°
2026-04-24 16:24 40.87876 14.28122 292 ft 2 kts 142°
2026-04-24 16:24 40.87888 14.28110 292 ft 2 kts 141°
2026-04-24 16:24 40.87895 14.28102 292 ft 1 kts 142°
2026-04-24 16:24 40.87906 14.28088 292 ft 2 kts 117°
2026-04-24 16:25 40.87911 14.28069 292 ft 2 kts 98°
2026-04-24 16:25 40.87911 14.28050 292 ft 2 kts 77°
2026-04-24 16:25 40.87905 14.28031 293 ft 1 kts 56°
2026-04-24 16:26 40.87899 14.28021 293 ft 0 kts 50°
2026-04-24 16:29 40.87902 14.28026 293 ft 3 kts 50°
2026-04-24 16:29 40.87923 14.28059 292 ft 6 kts 50°
2026-04-24 16:29 40.88016 14.28141 291 ft 9 kts 30°
2026-04-24 16:30 40.88063 14.28336 287 ft 14 kts 95°
2026-04-24 16:30 40.88052 14.28466 286 ft 12 kts 98°
2026-04-24 16:30 40.88043 14.28586 284 ft 13 kts 78°
2026-04-24 16:31 40.88103 14.28701 282 ft 16 kts 50°
2026-04-24 16:31 40.88179 14.28828 277 ft 19 kts 52°
2026-04-24 16:31 40.88262 14.28977 274 ft 20 kts 53°
2026-04-24 16:31 40.88351 14.29135 268 ft 22 kts 52°
2026-04-24 16:32 40.88419 14.29251 265 ft 24 kts 52°
2026-04-24 16:32 40.88559 14.29491 257 ft 24 kts 53°
2026-04-24 16:32 40.88663 14.29675 252 ft 25 kts 54°
2026-04-24 16:32 40.88773 14.29866 246 ft 27 kts 52°
2026-04-24 16:33 40.88889 14.30070 240 ft 28 kts 53°
2026-04-24 16:33 40.88988 14.30239 236 ft 20 kts 52°
2026-04-24 16:33 40.89068 14.30377 235 ft 14 kts 52°
2026-04-24 16:33 40.89139 14.30462 233 ft 9 kts
2026-04-24 16:34 40.89154 14.30459 233 ft 0 kts 339°
2026-04-24 16:34 40.89160 14.30454 233 ft 0 kts 322°
2026-04-24 16:35 40.89162 14.30452 233 ft 1 kts 322°
2026-04-24 16:35 40.89178 14.30436 233 ft 6 kts 322°
2026-04-24 16:35 40.89212 14.30402 233 ft 3 kts 317°
2026-04-24 16:35 40.89214 14.30369 234 ft 3 kts 250°
2026-04-24 16:36 40.89202 14.30344 234 ft 2 kts 235°
2026-04-24 16:36 40.89170 14.30279 235 ft 26 kts 237°
2026-04-24 16:36 40.88929 14.29767 246 ft 102 kts 238°
2026-04-24 16:36 40.88433 14.28712 279 ft 163 kts 242°
2026-04-24 16:37 40.87801 14.27370 741 ft 178 kts 237°
2026-04-24 16:37 40.86966 14.26171 1545 ft 180 kts 224°
2026-04-24 16:37 40.86318 14.25508 2010 ft 182 kts 218°
2026-04-24 16:37 40.84874 14.24356 2911 ft 185 kts 209°
2026-04-24 16:38 40.83689 14.23749 3543 ft 188 kts 184°
2026-04-24 16:38 40.82379 14.23996 4063 ft 196 kts 161°
2026-04-24 16:38 40.81075 14.24595 4682 ft 201 kts 157°
2026-04-24 16:38 40.79764 14.25215 5364 ft 203 kts 158°
2026-04-24 16:39 40.78425 14.25798 6031 ft 205 kts 159°
2026-04-24 16:39 40.77058 14.26351 6704 ft 208 kts 159°
2026-04-24 16:39 40.75661 14.26891 7338 ft 210 kts 159°
2026-04-24 16:39 40.74378 14.27779 7783 ft 215 kts 128°
2026-04-24 16:40 40.73799 14.29581 8165 ft 220 kts 90°
2026-04-24 16:40 40.73824 14.31641 8501 ft 238 kts 85°
2026-04-24 16:40 40.73833 14.33930 8900 ft 259 kts 88°
2026-04-24 16:40 40.73743 14.36360 9379 ft 276 kts 91°
2026-04-24 16:41 40.73592 14.38899 10079 ft 283 kts 88°
2026-04-24 16:41 40.73857 14.41376 10707 ft 287 kts 68°
2026-04-24 16:41 40.74871 14.43693 11109 ft 300 kts 46°
2026-04-24 16:41 40.76564 14.45406 11485 ft 316 kts 27°
2026-04-24 16:42 40.78578 14.46692 11871 ft 333 kts 25°
2026-04-24 16:42 40.80721 14.48060 12190 ft 351 kts 25°
2026-04-24 16:42 40.82973 14.49506 12508 ft 368 kts 25°
2026-04-24 16:42 40.85316 14.51019 12898 ft 381 kts 25°
2026-04-24 16:43 40.87709 14.52569 13520 ft 386 kts 25°
2026-04-24 16:43 40.90127 14.54139 14194 ft 390 kts 26°
2026-04-24 16:43 40.92583 14.55735 14880 ft 393 kts 26°
2026-04-24 16:43 40.95036 14.57331 15512 ft 397 kts 26°
2026-04-24 16:44 40.97518 14.58948 16133 ft 400 kts 26°
2026-04-24 16:44 41.00012 14.60575 16737 ft 404 kts 26°
2026-04-24 16:44 41.02514 14.62208 17310 ft 407 kts 26°
2026-04-24 16:44 41.05083 14.63887 17924 ft 409 kts 27°
2026-04-24 16:45 41.07629 14.65552 18516 ft 411 kts 27°
2026-04-24 16:45 41.10188 14.67229 19099 ft 414 kts 27°
2026-04-24 16:45 41.12762 14.68918 19640 ft 417 kts 27°
2026-04-24 16:45 41.15361 14.70624 20156 ft 420 kts 28°
2026-04-24 16:46 41.17987 14.72349 20663 ft 423 kts 28°
2026-04-24 16:46 41.20652 14.74101 21161 ft 427 kts 28°
2026-04-24 16:46 41.23292 14.75838 21666 ft 429 kts 28°
2026-04-24 16:46 41.25984 14.77609 22159 ft 431 kts 28°
2026-04-24 16:47 41.28754 14.79132 22609 ft 437 kts 20°
2026-04-24 16:47 41.31723 14.79950 23084 ft 442 kts
2026-04-24 16:47 41.34833 14.80030 23513 ft 449 kts 359°
2026-04-24 16:47 41.37965 14.79589 23967 ft 452 kts 356°
2026-04-24 16:48 41.41051 14.79082 24487 ft 452 kts 356°
2026-04-24 16:48 41.44182 14.78550 25078 ft 450 kts 356°
2026-04-24 16:48 41.47247 14.78030 25635 ft 448 kts 356°
2026-04-24 16:48 41.50353 14.77507 26173 ft 447 kts 356°
2026-04-24 16:49 41.53423 14.76994 26667 ft 447 kts 356°
2026-04-24 16:49 41.56510 14.76483 27171 ft 446 kts 356°
2026-04-24 16:49 41.59568 14.75977 27662 ft 445 kts 356°
2026-04-24 16:49 41.62635 14.75469 28142 ft 444 kts 356°
2026-04-24 16:50 41.64655 14.75134 28463 ft 443 kts 357°
2026-04-24 16:50 41.68723 14.74461 29098 ft 442 kts 357°
2026-04-24 16:50 41.71799 14.73953 29557 ft 441 kts 357°
2026-04-24 16:50 41.74811 14.73453 29961 ft 441 kts 357°
2026-04-24 16:51 41.77880 14.72945 30391 ft 440 kts 357°
2026-04-24 16:51 41.80905 14.72444 30762 ft 440 kts 357°
2026-04-24 16:51 41.83945 14.71942 31133 ft 440 kts 357°
2026-04-24 16:51 41.86940 14.71445 31514 ft 439 kts 357°
2026-04-24 16:52 41.89989 14.70939 31891 ft 439 kts 357°
2026-04-24 16:52 41.93001 14.70438 32262 ft 437 kts 357°
2026-04-24 16:52 41.96027 14.69933 32631 ft 436 kts 357°
2026-04-24 16:52 41.99012 14.69436 32970 ft 436 kts 357°
2026-04-24 16:53 42.02004 14.68937 33310 ft 434 kts 356°
2026-04-24 16:53 42.05026 14.68430 33651 ft 433 kts 357°
2026-04-24 16:53 42.07994 14.67934 33965 ft 432 kts 356°
2026-04-24 16:53 42.10963 14.67437 34276 ft 431 kts 356°
2026-04-24 16:54 42.13945 14.66937 34544 ft 431 kts 357°
2026-04-24 16:54 42.16920 14.66438 34748 ft 432 kts 356°
2026-04-24 16:54 42.19894 14.65939 34932 ft 432 kts 356°
2026-04-24 16:54 42.22866 14.65441 35107 ft 433 kts 356°
2026-04-24 16:55 42.25847 14.64939 35280 ft 434 kts 356°
2026-04-24 16:55 42.28864 14.64432 35458 ft 434 kts 356°
2026-04-24 16:55 42.31848 14.63928 35629 ft 435 kts 356°
2026-04-24 16:55 42.34844 14.63421 35796 ft 435 kts 356°
2026-04-24 16:56 42.37829 14.62917 35953 ft 436 kts 356°
2026-04-24 16:56 42.40868 14.62402 36053 ft 437 kts 356°
2026-04-24 16:56 42.46883 14.61386 36061 ft 440 kts 356°
2026-04-24 16:57 42.52954 14.60355 36066 ft 439 kts 356°
2026-04-24 16:57 42.58983 14.59329 36064 ft 439 kts 356°
2026-04-24 16:58 42.65050 14.58297 36066 ft 439 kts 356°
2026-04-24 16:58 42.71102 14.57264 36062 ft 439 kts 356°
2026-04-24 16:59 42.77155 14.56229 36352 ft 439 kts 357°
2026-04-24 16:59 42.83166 14.55199 36100 ft 437 kts 357°
2026-04-24 17:00 42.86203 14.54678 36075 ft 437 kts 357°
2026-04-24 17:00 42.95226 14.53128 36059 ft 436 kts 357°
2026-04-24 17:01 43.04213 14.51579 36053 ft 436 kts 357°
2026-04-24 17:02 43.13247 14.50018 36054 ft 436 kts 357°
2026-04-24 17:02 43.19248 14.48977 36052 ft 435 kts 357°
2026-04-24 17:03 43.28216 14.47419 36053 ft 435 kts 357°
2026-04-24 17:04 43.34220 14.46372 36053 ft 435 kts 357°
2026-04-24 17:04 43.43200 14.44806 36053 ft 435 kts 357°
2026-04-24 17:05 43.49188 14.43757 36052 ft 435 kts 357°
2026-04-24 17:06 43.58187 14.42195 36053 ft 434 kts 358°
2026-04-24 17:06 43.67159 14.40850 36053 ft 434 kts 358°
2026-04-24 17:07 43.73160 14.39952 36051 ft 434 kts 358°
2026-04-24 17:08 43.85100 14.38141 36052 ft 433 kts 358°
2026-04-24 17:08 43.91106 14.37227 36053 ft 433 kts 358°
2026-04-24 17:09 44.03036 14.35402 36051 ft 433 kts 358°
2026-04-24 17:10 44.14997 14.33567 36049 ft 433 kts 358°
2026-04-24 17:12 44.38892 14.29875 36051 ft 432 kts 357°
2026-04-24 18:54 53.62810 9.98793 62 ft 12 kts 50°
2026-04-24 18:55 53.62928 9.99032 62 ft 12 kts 50°
2026-04-24 18:55 53.62980 9.99136 62 ft 9 kts 50°
2026-04-24 18:55 53.63023 9.99223 62 ft 8 kts 50°
2026-04-24 18:56 53.63057 9.99297 62 ft 5 kts 54°
2026-04-24 18:56 53.63073 9.99337 62 ft 0 kts 55°
2026-04-24 18:56 53.63073 9.99338 62 ft 0 kts 55°
2026-04-24 18:57 53.63074 9.99340 62 ft 0 kts 55°
2026-04-24 18:58 53.63080 9.99353 62 ft 0 kts 55°
2026-04-24 18:58 53.63082 9.99358 62 ft 0 kts 55°
2026-04-24 19:00 53.63099 9.99400 62 ft 9 kts 55°
2026-04-24 19:00 53.63145 9.99511 62 ft 12 kts 55°
2026-04-24 19:00 53.63192 9.99615 62 ft 9 kts 51°
2026-04-24 19:00 53.63238 9.99705 62 ft 10 kts 46°
2026-04-24 19:01 53.63294 9.99797 62 ft 11 kts 45°
2026-04-24 19:01 53.63349 9.99902 62 ft 12 kts 49°
2026-04-24 19:01 53.63407 10.00014 62 ft 13 kts 52°
2026-04-24 19:01 53.63442 10.00100 62 ft 8 kts 76°
2026-04-24 19:02 53.63428 10.00154 62 ft 8 kts 145°
2026-04-24 19:02 53.63348 10.00165 62 ft 9 kts 176°
2026-04-24 19:02 53.63279 10.00173 62 ft 10 kts 176°
2026-04-24 19:02 53.63204 10.00180 62 ft 11 kts 175°
2026-04-24 19:03 53.63133 10.00189 62 ft 9 kts 176°
2026-04-24 19:03 53.63115 10.00199 62 ft 2 kts 130°
2026-04-24 19:03 53.63108 10.00240 62 ft 4 kts 95°
2026-04-24 19:03 53.63109 10.00306 62 ft 6 kts 87°
2026-04-24 19:04 53.63111 10.00359 62 ft 2 kts 86°
2026-04-24 19:04 53.63111 10.00367 62 ft 0 kts 86°